When you browse on this site, cookies collect data to enhance your experience and personalize the content and advertising you see.
Visit our Privacy Policy to learn more. By continuing to use the site, you agree to this use of cookies and data.
  • In United Kingdom
  • List of Countries
  • For 7 days
  • Water Temperature
  • Satellite Maps
  • Weather Map
  • Weather Widgets
  • user-avatar
    Login

    Hourly Weather Armawir

    Today, 26 May, Sunday

    Time Temperature Precipitation Wind Pressure Humidity
    00:00 +20°C° 0 mm 1 mps 687 mmHg 48%
    01:00 +19°C° 0 mm 2 mps 687 mmHg 48%
    02:00 +18°C° 0 mm 2 mps 687 mmHg 47%
    03:00 +18°C° 0 mm 2 mps 687 mmHg 48%
    04:00 +19°C° 0 mm 2 mps 687 mmHg 49%
    05:00 +19°C° 0 mm 2 mps 687 mmHg 49%
    06:00 +19°C° 0 mm 2 mps 687 mmHg 50%
    07:00 +21°C° 0 mm 2 mps 687 mmHg 44%
    08:00 +24°C° 0 mm 2 mps 687 mmHg 39%
    09:00 +26°C° 0 mm 2 mps 687 mmHg 33%
    10:00 +27°C° 0 mm 2 mps 687 mmHg 30%
    11:00 +28°C° 0 mm 3 mps 687 mmHg 27%
    12:00 +29°C° 0 mm 3 mps 687 mmHg 24%
    13:00 +29°C° 0 mm 3 mps 687 mmHg 23%
    14:00 +30°C° 0 mm 3 mps 686 mmHg 22%
    15:00 +30°C° 0 mm 4 mps 686 mmHg 21%
    16:00 +29°C° 0 mm 3 mps 686 mmHg 22%
    17:00 +29°C° 0 mm 3 mps 687 mmHg 24%
    18:00 +28°C° 0 mm 2 mps 687 mmHg 25%
    19:00 +25°C° 0 mm 3 mps 687 mmHg 30%
    20:00 +22°C° 0 mm 4 mps 688 mmHg 36%
    21:00 +20°C° 0 mm 4 mps 688 mmHg 42%
    22:00 +19°C° 0 mm 4 mps 688 mmHg 45%
    23:00 +18°C° 0 mm 4 mps 688 mmHg 48%

    Tomorrow, 27 May, Monday

    Time Temperature Precipitation Wind Pressure Humidity
    00:00 +17°C° 0 mm 3 mps 689 mmHg 51%
    01:00 +16°C° 0 mm 3 mps 689 mmHg 52%
    02:00 +16°C° 0 mm 3 mps 689 mmHg 53%
    03:00 +14°C° 0 mm 3 mps 689 mmHg 55%
    04:00 +16°C° 0 mm 3 mps 689 mmHg 54%
    05:00 +16°C° 0 mm 3 mps 689 mmHg 53%
    06:00 +16°C° 0 mm 2 mps 689 mmHg 52%
    07:00 +18°C° 0 mm 2 mps 689 mmHg 45%
    08:00 +20°C° 0 mm 2 mps 690 mmHg 39%
    09:00 +23°C° 0 mm 2 mps 690 mmHg 32%
    10:00 +24°C° 0 mm 2 mps 690 mmHg 30%
    11:00 +25°C° 0 mm 2 mps 690 mmHg 28%
    12:00 +26°C° 0 mm 2 mps 690 mmHg 26%
    13:00 +27°C° 0 mm 2 mps 689 mmHg 25%
    14:00 +28°C° 0 mm 2 mps 689 mmHg 25%
    15:00 +28°C° 0 mm 2 mps 689 mmHg 24%
    16:00 +28°C° 0 mm 2 mps 689 mmHg 26%
    17:00 +27°C° 0 mm 2 mps 689 mmHg 28%
    18:00 +27°C° 0 mm 2 mps 689 mmHg 29%
    19:00 +25°C° 0.1 mm 2 mps 689 mmHg 33%
    20:00 +23°C° 0.1 mm 2 mps 690 mmHg 37%
    21:00 +20°C° 0.1 mm 2 mps 690 mmHg 41%
    22:00 +20°C° 0.1 mm 2 mps 690 mmHg 45%
    23:00 +19°C° 0.1 mm 2 mps 690 mmHg 49%

    Day after tomorrow, 28 May, Tuesday

    Time Temperature Precipitation Wind Pressure Humidity
    00:00 +18°C° 0.1 mm 2 mps 690 mmHg 53%
    01:00 +17°C° 0 mm 2 mps 690 mmHg 55%
    02:00 +17°C° 0 mm 2 mps 690 mmHg 58%
    03:00 +16°C° 0 mm 2 mps 690 mmHg 60%
    04:00 +17°C° 0 mm 2 mps 690 mmHg 59%
    05:00 +17°C° 0 mm 2 mps 690 mmHg 59%
    06:00 +18°C° 0 mm 2 mps 690 mmHg 58%
    07:00 +20°C° 0 mm 1 mps 690 mmHg 52%
    08:00 +22°C° 0 mm 1 mps 690 mmHg 46%
    09:00 +24°C° 0 mm 1 mps 690 mmHg 40%
    10:00 +25°C° 0 mm 1 mps 690 mmHg 37%
    11:00 +26°C° 0 mm 1 mps 690 mmHg 34%
    12:00 +27°C° 0 mm 2 mps 690 mmHg 31%
    13:00 +28°C° 0 mm 2 mps 690 mmHg 30%
    14:00 +28°C° 0 mm 2 mps 690 mmHg 28%
    15:00 +29°C° 0 mm 2 mps 689 mmHg 27%
    16:00 +28°C° 0.1 mm 2 mps 689 mmHg 29%
    17:00 +28°C° 0.1 mm 1 mps 689 mmHg 31%
    18:00 +27°C° 0.1 mm 1 mps 689 mmHg 33%
    19:00 +25°C° 0 mm 1 mps 689 mmHg 38%
    20:00 +23°C° 0 mm 1 mps 690 mmHg 43%
    21:00 +20°C° 0 mm 2 mps 690 mmHg 48%
    22:00 +19°C° 0 mm 2 mps 690 mmHg 51%
    23:00 +18°C° 0 mm 2 mps 690 mmHg 54%

    29 May, Wednesday

    Time Temperature Precipitation Wind Pressure Humidity
    00:00 +18°C° 0 mm 2 mps 690 mmHg 57%
    01:00 +17°C° 0 mm 2 mps 690 mmHg 59%
    02:00 +16°C° 0 mm 2 mps 690 mmHg 62%
    03:00 +16°C° 0 mm 2 mps 690 mmHg 64%
    04:00 +16°C° 0 mm 2 mps 690 mmHg 63%
    05:00 +17°C° 0 mm 2 mps 690 mmHg 62%
    06:00 +18°C° 0 mm 2 mps 690 mmHg 60%
    07:00 +20°C° 0 mm 1 mps 690 mmHg 54%
    08:00 +22°C° 0 mm 1 mps 690 mmHg 48%
    09:00 +23°C° 0 mm 1 mps 690 mmHg 42%
    10:00 +25°C° 0 mm 1 mps 690 mmHg 39%
    11:00 +26°C° 0 mm 1 mps 690 mmHg 35%
    12:00 +27°C° 0 mm 2 mps 690 mmHg 32%
    13:00 +28°C° 0 mm 2 mps 690 mmHg 30%
    14:00 +29°C° 0 mm 1 mps 689 mmHg 28%
    15:00 +29°C° 0 mm 1 mps 689 mmHg 26%
    16:00 +29°C° 0 mm 1 mps 689 mmHg 27%
    17:00 +28°C° 0 mm 1 mps 689 mmHg 28%
    18:00 +28°C° 0 mm 1 mps 689 mmHg 29%
    19:00 +26°C° 0 mm 1 mps 689 mmHg 35%
    20:00 +23°C° 0 mm 2 mps 689 mmHg 41%
    21:00 +20°C° 0 mm 2 mps 690 mmHg 47%
    22:00 +19°C° 0 mm 2 mps 690 mmHg 51%
    23:00 +19°C° 0 mm 2 mps 690 mmHg 54%

    30 May, Thursday

    Time Temperature Precipitation Wind Pressure Humidity
    00:00 +18°C° 0 mm 2 mps 690 mmHg 58%
    01:00 +18°C° 0 mm 2 mps 689 mmHg 59%
    02:00 +17°C° 0 mm 2 mps 689 mmHg 60%
    03:00 +17°C° 0 mm 2 mps 689 mmHg 61%
    04:00 +19°C° 0 mm 1 mps 689 mmHg 58%
    05:00 +19°C° 0 mm 1 mps 690 mmHg 56%
    06:00 +20°C° 0 mm 1 mps 690 mmHg 54%
    07:00 +22°C° 0 mm 1 mps 690 mmHg 48%
    08:00 +23°C° 0 mm 1 mps 690 mmHg 43%
    09:00 +25°C° 0 mm 1 mps 689 mmHg 38%
    10:00 +26°C° 0 mm 1 mps 689 mmHg 35%
    11:00 +28°C° 0 mm 1 mps 689 mmHg 32%
    12:00 +29°C° 0 mm 2 mps 689 mmHg 29%
    13:00 +29°C° 0 mm 2 mps 689 mmHg 27%
    14:00 +30°C° 0 mm 2 mps 689 mmHg 26%
    15:00 +30°C° 0 mm 2 mps 688 mmHg 24%
    16:00 +30°C° 0.1 mm 2 mps 688 mmHg 26%
    17:00 +30°C° 0.1 mm 1 mps 688 mmHg 27%
    18:00 +29°C° 0.1 mm 1 mps 688 mmHg 28%
    19:00 +27°C° 0.1 mm 1 mps 688 mmHg 34%
    20:00 +24°C° 0.1 mm 1 mps 688 mmHg 39%
    21:00 +22°C° 0.1 mm 1 mps 689 mmHg 45%
    22:00 +21°C° 0 mm 1 mps 689 mmHg 48%
    23:00 +20°C° 0 mm 2 mps 689 mmHg 51%

    31 May, Friday

    Time Temperature Precipitation Wind Pressure Humidity
    00:00 +19°C° 0 mm 2 mps 689 mmHg 54%
    01:00 +19°C° 0 mm 2 mps 688 mmHg 55%
    02:00 +18°C° 0 mm 2 mps 688 mmHg 56%
    03:00 +18°C° 0 mm 2 mps 688 mmHg 58%
    04:00 +18°C° 0 mm 2 mps 688 mmHg 56%
    05:00 +19°C° 0 mm 2 mps 688 mmHg 54%
    06:00 +21°C° 0 mm 1 mps 689 mmHg 52%
    07:00 +21°C° 0 mm 2 mps 689 mmHg 46%
    08:00 +24°C° 0 mm 2 mps 688 mmHg 41%
    09:00 +26°C° 0 mm 2 mps 688 mmHg 35%
    10:00 +27°C° 0 mm 2 mps 688 mmHg 33%
    11:00 +28°C° 0 mm 3 mps 688 mmHg 31%
    12:00 +30°C° 0 mm 3 mps 687 mmHg 28%
    13:00 +30°C° 0 mm 3 mps 687 mmHg 27%
    14:00 +31°C° 0 mm 3 mps 687 mmHg 26%
    15:00 +31°C° 0 mm 3 mps 686 mmHg 25%
    16:00 +31°C° 0.3 mm 3 mps 686 mmHg 28%
    17:00 +30°C° 0.3 mm 3 mps 686 mmHg 31%
    18:00 +29°C° 0.3 mm 3 mps 686 mmHg 34%
    19:00 +27°C° 1.1 mm 2 mps 686 mmHg 42%
    20:00 +24°C° 1.1 mm 2 mps 686 mmHg 51%
    21:00 +22°C° 1.1 mm 1 mps 687 mmHg 60%
    22:00 +22°C° 0.3 mm 1 mps 687 mmHg 61%
    23:00 +22°C° 0.3 mm 1 mps 687 mmHg 61%
    Show more